Find Geoskan-2

NORAD ID: 64890 Int'l Des: 2025-155 Owner: GEOSK Country: RU operational
LEOCIRCULARRETROGRADESSO

Live Position

Loading 3D Globe...

About Geoskan-2

Description loading...

Upcoming Passes

Passes for default location (London). Set your location on the main map for personalized predictions.

Altitude History

Loading altitude history...

Two-Line Element Set

1 64890U 25155Q 26105.60293095 .00006964 00000-0 24439-3 0 9993
2 64890 97.4507 74.2158 0008390 41.0184 319.1686 15.29712107 71216
Epoch: Apr 15, 2026 • Age: 10 hours

Current Status

Altitude 474.2 km
Velocity 7.63 km/s
Sub-Earth Point 24.31°N, 132.85°W
Launch Date Jul 25, 2025
Age 0.7 years
Type other

Technical Details

Classification Payload
Mass 3.00 kg
Dry Mass 3.00 kg
Total Mass 3.00 kg
Length 0.30 m
Diameter 0.10 m
Span 0.30 m
Shape Box
Manufacturer SPUT/GEOSK
Bus Type Cubesat 3U
Phase Status In Orbit
Owner/State GEOSK/RU

Most Searched